Theta_e
329 330 330 330 329 328 327 329 329 332 332 334 335 334 333 331 333 339 341 340 340 340 342 344 344 343 343 343 345 344 345 346 346 346 346 346 347 348 350 351 352 352 351 350 351 351 350 350 351 350 351 351 350 351 350 351 352 353 353 352 352 353 350 348 350 352 351 350 351 351 350 350 349 347 349 350 349 350 351 349 348 344 339 337 334 331
329 329 330 331 331 329 329 329 329 331 332 332 333 332 332 332 333 338 339 339 338 339 339 343 344 342 344 342 342 344 345 345 345 346 346 346 347 347 348 350 352 352 351 351 351 351 351 351 351 351 351 351 350 351 350 350 351 352 352 353 352 353 351 348 348 348 347 347 347 347 347 347 346 344 346 350 350 349 350 350 349 346 342 339 335 333
329 328 330 331 332 330 330 330 329 330 332 332 333 331 329 331 333 335 336 338 338 339 341 342 343 342 343 342 342 342 342 344 346 346 347 347 347 346 348 349 351 352 351 352 351 350 351 351 351 352 351 351 350 350 350 350 351 351 352 352 352 353 352 350 347 346 344 343 344 344 343 343 342 341 344 348 350 349 349 349 349 348 345 340 336 334
326 328 330 331 331 332 331 330 330 330 331 333 334 330 328 331 330 328 332 337 339 338 341 342 342 341 343 342 342 341 341 344 345 346 348 349 349 347 348 348 350 352 353 352 351 351 351 351 352 352 351 352 350 351 350 350 351 350 350 351 352 353 352 350 347 345 342 340 343 344 343 342 341 341 342 345 348 350 349 348 347 348 346 342 338 334
328 330 330 331 332 334 332 331 331 330 330 331 334 332 330 332 330 328 332 337 338 338 342 342 337 338 344 343 343 341 340 344 345 346 348 349 350 349 349 349 350 352 353 352 352 351 351 351 352 352 352 351 351 351 351 351 351 350 350 349 350 352 350 348 346 345 343 342 344 345 345 347 346 345 344 344 345 348 350 349 347 347 345 342 339 335
330 331 331 331 333 334 332 331 331 330 328 329 332 333 332 332 332 332 332 331 332 332 338 338 330 334 344 343 343 342 342 344 345 346 346 347 351 350 349 350 351 353 353 353 352 351 351 351 352 352 352 352 351 351 351 351 351 351 351 350 349 349 349 348 346 344 343 343 342 343 345 346 348 348 347 343 341 342 346 349 349 347 343 341 338 335
330 332 333 332 333 334 333 332 332 331 328 325 330 332 332 333 333 333 331 327 326 329 337 338 333 332 338 340 343 343 342 343 344 345 347 347 350 351 350 350 351 353 353 353 353 351 351 351 351 351 351 352 352 352 352 351 352 351 351 351 349 349 349 349 347 345 343 342 341 340 341 342 343 347 347 344 341 339 340 346 348 345 341 338 337 335
332 333 332 331 331 332 333 331 332 332 327 325 332 332 331 333 333 334 332 327 327 332 336 336 335 332 332 338 344 344 344 344 344 345 347 348 349 350 349 349 350 352 354 353 353 352 352 351 351 351 352 352 352 353 353 353 353 352 351 350 350 349 350 349 347 345 342 341 339 339 340 340 340 345 347 345 345 343 342 344 347 345 340 337 336 335
332 332 331 330 328 329 331 331 332 333 330 329 333 333 332 333 332 334 331 327 328 329 329 332 333 331 331 339 346 344 343 345 344 344 346 349 349 350 349 350 351 352 353 354 352 353 353 352 352 352 352 353 353 353 353 354 353 352 351 350 351 350 350 349 346 344 342 341 338 337 338 340 340 342 346 348 346 345 346 347 347 346 343 338 337 336
331 331 328 328 327 326 329 331 330 331 330 331 332 333 334 334 333 334 330 326 326 325 325 330 330 329 330 337 342 341 339 342 345 345 346 348 349 350 351 350 351 352 353 353 353 353 353 353 352 353 353 353 353 353 353 354 354 353 352 351 351 350 349 348 346 344 342 341 339 337 337 338 338 340 345 349 348 345 346 348 348 347 344 340 339 338
330 329 328 327 326 327 328 330 329 329 330 331 331 333 332 332 332 332 329 326 323 321 324 327 328 330 329 333 336 339 338 341 343 342 345 348 349 349 350 350 351 350 352 353 353 353 353 353 353 353 353 353 353 354 354 354 354 354 353 352 351 350 349 348 347 344 341 340 339 338 336 336 336 336 341 346 346 344 345 348 349 348 345 342 341 342
329 328 329 327 326 327 329 329 329 329 329 330 331 331 327 326 327 325 325 325 321 319 322 324 326 326 325 330 337 339 340 341 341 341 344 349 350 350 350 350 350 350 352 353 353 354 353 353 353 353 354 353 353 354 354 354 354 354 354 354 352 351 350 349 347 345 342 340 338 338 336 334 333 334 336 339 340 340 341 344 349 349 348 346 345 346
327 328 329 329 328 328 328 328 328 329 330 330 330 327 322 321 321 320 321 321 318 320 322 324 325 321 322 332 339 340 341 341 341 339 342 349 351 351 350 351 351 351 352 353 353 354 354 352 353 353 353 354 354 354 355 354 354 354 355 354 353 352 351 349 348 345 343 341 338 337 336 334 333 332 333 334 335 337 338 339 345 349 348 347 347 346
323 327 328 328 328 329 327 326 325 326 328 329 327 323 320 320 319 319 320 318 318 320 322 323 324 319 320 331 339 340 338 339 340 338 341 348 351 350 350 351 351 351 352 353 353 353 353 353 353 353 354 354 355 355 356 355 355 355 355 355 355 353 351 349 348 344 341 340 337 336 335 333 334 333 331 332 333 335 336 336 339 343 345 344 344 343
318 322 325 326 327 329 329 327 327 327 328 328 329 326 322 320 319 319 318 316 318 320 321 321 320 318 320 329 337 339 335 334 338 339 340 347 349 348 349 349 350 350 352 352 353 353 353 353 352 352 352 353 355 355 357 357 356 356 356 356 356 353 351 349 348 345 340 339 338 337 335 333 333 333 332 331 331 333 334 335 336 338 341 342 340 340
318 320 325 327 328 328 328 328 329 329 325 327 328 325 321 322 322 321 320 318 320 322 322 319 319 324 330 335 337 336 335 332 334 336 338 344 349 346 347 349 350 350 351 351 352 353 353 353 353 352 351 352 354 356 356 357 357 357 357 357 356 355 352 349 347 344 339 337 338 337 335 334 332 332 331 331 331 332 333 333 334 334 337 339 339 339
317 321 328 328 328 329 328 328 329 328 325 325 324 321 324 327 325 321 320 322 320 320 322 320 320 325 327 330 333 333 334 332 333 334 335 341 346 344 345 349 350 350 351 350 351 351 353 353 352 352 352 353 355 356 356 357 357 358 358 358 358 356 353 350 348 345 340 337 337 335 334 333 332 332 331 331 330 331 332 332 332 332 334 337 339 340
320 321 327 329 327 328 330 329 329 330 328 324 321 322 327 329 325 322 321 322 321 319 320 319 318 322 321 323 330 332 332 332 334 334 334 339 343 344 345 348 349 350 349 350 351 350 351 352 352 352 352 352 352 353 354 355 356 357 358 358 358 357 356 352 349 347 343 339 335 334 332 332 332 331 330 330 330 331 331 332 331 332 333 335 337 340
323 320 325 329 329 328 330 329 327 329 331 327 324 327 327 322 320 321 320 320 322 320 319 319 319 319 320 322 328 329 329 331 335 334 332 338 342 343 347 348 348 349 348 350 351 351 351 352 351 352 352 351 351 351 353 355 355 357 357 358 359 358 357 354 350 349 347 344 338 334 333 332 331 331 331 331 331 331 331 331 331 331 332 333 335 338
325 321 322 328 330 329 329 328 324 324 329 330 327 328 327 322 322 323 320 320 322 322 321 321 319 320 326 329 328 329 329 330 336 339 336 338 342 344 346 348 348 346 348 348 350 350 351 351 351 352 351 351 352 352 353 354 355 356 358 359 359 359 358 356 354 351 350 348 343 338 334 332 332 331 331 331 331 331 331 331 330 331 331 332 333 336
326 323 320 326 329 326 325 327 326 325 327 326 325 323 323 324 324 324 322 321 322 323 324 324 321 324 334 336 330 330 331 330 335 340 339 339 342 344 345 346 347 346 346 347 348 348 349 350 350 350 350 351 352 352 353 353 354 356 357 359 359 359 359 358 356 353 351 350 347 342 338 335 333 332 332 331 331 331 331 331 330 331 331 332 333 334
327 324 321 322 324 322 324 329 331 329 329 328 325 323 322 322 321 319 321 321 319 320 324 325 325 330 340 338 334 331 331 332 334 337 339 338 338 344 346 345 346 347 347 347 347 348 349 349 349 348 349 350 350 352 352 353 355 357 359 359 359 360 359 359 358 355 352 351 348 345 341 337 335 334 333 332 332 331 331 331 331 331 333 333 334 334
325 327 323 321 323 325 327 330 331 329 329 330 328 326 326 324 320 318 319 323 319 318 321 321 321 334 348 342 336 334 331 332 333 336 339 335 333 341 346 344 346 346 347 347 346 348 348 349 350 348 349 349 349 351 354 355 357 358 359 360 360 360 360 360 359 356 354 352 350 346 342 339 338 336 335 335 333 332 331 331 332 332 333 333 334 334
324 327 325 322 325 328 329 330 331 331 331 328 328 328 327 324 323 324 327 328 322 318 320 319 318 334 355 346 336 336 334 332 332 333 335 334 332 340 346 345 344 344 346 346 346 347 347 347 349 349 349 350 351 352 354 357 358 360 361 361 361 361 361 360 360 358 356 353 351 348 346 342 339 338 337 336 334 333 333 332 333 333 333 334 334 335
323 326 327 326 325 323 327 327 326 329 329 328 328 329 327 328 327 325 329 330 325 320 321 320 319 334 354 352 339 337 335 334 333 331 332 331 332 341 346 345 344 344 346 348 347 348 348 347 350 350 350 352 352 352 353 353 356 359 359 361 362 362 362 361 360 359 358 354 351 350 348 346 342 340 338 337 336 334 333 333 334 333 334 334 335 336
321 324 327 330 328 324 325 326 324 325 327 328 330 328 327 329 326 325 326 325 325 327 324 322 323 332 343 346 341 338 338 336 335 336 338 337 337 343 345 345 343 343 346 348 349 348 348 349 349 348 349 350 352 354 353 353 355 357 357 358 361 362 362 363 362 361 359 358 355 352 349 347 345 342 339 337 336 335 334 334 334 334 334 334 335 336
319 323 327 332 333 329 329 333 334 328 325 325 327 326 328 328 327 327 324 322 331 333 326 329 334 330 332 337 338 336 339 340 342 344 347 347 345 344 344 345 345 343 344 347 350 348 349 349 348 347 348 351 354 355 354 354 355 356 358 359 361 362 364 365 365 364 362 361 358 355 351 348 345 342 339 338 336 335 335 335 335 335 335 335 337 337
318 323 326 329 332 332 331 334 335 330 326 324 326 327 327 328 328 326 322 327 341 333 324 338 346 332 330 337 339 340 341 342 345 347 347 347 347 345 344 345 344 342 343 346 348 348 347 347 348 348 349 351 355 355 354 354 355 356 360 362 363 363 364 366 367 366 365 363 361 358 354 349 345 342 339 338 337 336 335 335 335 336 336 336 337 338
316 322 325 326 328 330 331 332 332 332 329 327 327 327 326 326 326 325 324 333 341 334 334 350 351 338 336 338 339 345 343 341 342 344 344 346 348 346 345 344 344 344 345 346 348 348 348 348 350 351 352 354 354 352 353 354 356 359 361 363 363 363 364 365 367 367 367 365 364 361 356 352 348 344 342 340 338 337 336 336 336 337 338 338 337 336
315 320 322 321 324 329 330 332 333 332 332 330 328 328 327 327 326 325 327 334 337 336 344 356 351 341 339 337 339 342 339 337 339 340 341 344 347 347 346 346 348 349 349 349 348 347 347 348 349 349 351 351 348 349 352 355 358 360 363 363 364 363 364 365 366 368 367 366 365 363 360 356 351 348 346 344 341 338 337 337 337 338 339 339 338 337
314 317 318 318 324 330 331 331 332 331 331 330 330 330 329 327 327 326 326 330 335 334 338 349 348 342 338 337 341 339 336 337 338 337 339 342 344 346 345 347 350 352 351 349 350 349 347 346 346 347 348 349 349 351 356 359 360 362 364 364 364 364 364 365 365 367 367 367 366 365 363 360 356 352 349 346 343 340 339 338 339 339 340 341 340 338
314 315 316 318 325 330 331 331 330 330 330 328 328 331 332 327 326 326 326 328 334 334 336 340 339 338 338 341 342 338 337 339 341 336 335 336 338 341 343 344 347 349 348 348 349 349 349 350 349 348 349 349 352 357 360 363 364 364 365 364 365 365 364 364 366 367 367 367 366 365 364 362 359 355 351 348 345 343 340 340 340 340 341 342 341 341
313 314 315 317 323 328 330 331 330 328 328 328 329 331 334 333 329 326 327 330 334 335 337 340 342 343 343 340 339 339 339 340 341 337 334 335 335 336 339 340 344 347 348 347 347 349 351 350 350 351 352 350 351 357 361 364 364 364 365 365 365 365 365 365 365 365 366 366 366 365 365 363 362 358 354 351 347 345 344 344 343 343 342 341 341 342
313 314 315 317 321 324 325 327 330 329 327 331 334 333 334 334 331 328 326 327 331 334 339 345 351 348 343 339 339 340 340 339 336 334 333 332 332 333 335 337 340 344 344 344 346 345 344 344 346 353 359 360 358 361 362 363 362 363 363 365 365 365 365 365 364 365 365 366 365 365 364 363 362 361 358 355 351 349 348 347 344 343 343 342 342 342
313 313 314 317 320 323 324 328 330 329 330 334 334 335 334 332 332 333 332 330 331 334 335 339 346 345 341 341 340 339 337 335 333 337 338 337 339 341 342 342 340 340 342 343 345 346 343 341 345 350 352 353 354 358 361 362 362 362 362 363 364 365 365 364 364 364 365 365 365 364 363 363 361 360 360 358 356 353 351 349 346 345 345 343 342 342
312 313 315 316 320 325 330 332 329 330 334 334 334 334 333 333 334 334 337 340 341 340 341 338 338 341 339 337 335 334 334 334 341 349 350 350 353 352 352 356 356 355 355 354 353 351 347 345 348 349 346 346 347 349 351 354 357 359 361 361 361 363 363 363 364 363 363 364 364 363 363 363 361 359 359 359 357 356 354 352 349 347 345 345 344 344
312 313 314 316 321 325 327 328 329 333 338 336 333 334 332 333 334 335 337 340 340 339 343 342 336 336 337 336 334 333 334 339 349 354 354 354 356 356 358 362 363 361 361 358 356 355 352 350 351 351 348 348 349 350 350 347 347 350 354 356 358 361 361 361 362 362 362 362 362 362 362 362 362 361 359 358 358 357 356 354 352 349 347 347 347 347
312 313 314 317 320 322 322 327 329 331 334 332 329 331 331 332 332 334 340 342 340 338 343 345 342 339 337 335 333 333 339 349 355 355 353 352 354 356 357 359 360 360 359 356 353 351 353 351 346 344 346 342 340 346 352 352 349 348 348 349 351 355 357 358 359 360 360 361 360 362 362 361 361 361 359 358 358 357 357 356 355 353 352 350 349 348
312 313 314 315 317 318 323 331 332 329 332 333 330 329 332 334 333 333 342 343 340 338 343 345 345 345 343 340 337 338 346 354 356 353 351 351 353 355 356 356 355 355 355 355 349 347 354 356 347 344 351 349 341 340 343 349 352 351 351 350 349 348 349 351 355 357 359 360 359 360 362 362 361 361 361 360 359 358 358 358 356 356 354 354 352 350
313 314 314 314 317 319 324 330 331 331 332 330 328 330 333 334 333 339 346 343 339 338 342 344 343 344 345 345 345 345 351 353 354 351 349 350 352 355 356 356 353 352 353 355 350 347 352 356 352 354 361 361 357 351 345 345 348 350 351 354 353 351 349 347 350 353 355 357 358 358 359 361 362 362 361 362 360 360 360 359 359 358 358 357 357 355
315 315 315 315 315 318 325 330 329 330 330 326 326 332 334 334 339 345 345 341 337 339 342 342 342 342 343 345 347 348 349 349 349 349 349 350 352 353 354 353 349 350 354 357 357 352 347 350 356 363 365 364 363 360 353 351 351 351 352 353 353 355 353 351 350 350 351 354 356 356 357 358 361 362 361 362 362 362 360 360 361 361 360 360 360 359
316 315 316 316 314 317 329 335 332 332 330 325 326 331 334 339 344 343 340 338 336 339 341 339 340 342 341 343 344 345 345 345 346 347 347 349 350 350 351 349 347 349 354 357 358 355 351 353 361 365 363 362 362 361 359 358 357 357 356 355 353 354 354 355 354 351 351 352 353 355 357 357 359 361 362 362 364 362 362 362 361 363 363 362 362 362
317 316 315 317 315 317 326 330 332 334 331 324 326 332 336 340 340 338 337 336 336 338 338 338 339 340 340 342 343 342 344 344 344 345 345 347 349 349 350 350 350 351 354 354 355 354 353 357 361 361 359 359 357 355 355 357 357 358 358 357 355 353 352 354 355 354 352 352 351 353 355 355 357 360 361 362 364 363 364 363 362 364 364 364 364 364
321 320 319 320 319 322 326 329 332 333 328 323 326 329 332 336 336 333 333 334 333 335 336 336 338 339 340 341 341 341 342 342 342 343 345 346 348 348 350 351 351 352 352 352 353 353 352 356 359 358 356 356 355 352 352 356 358 359 360 357 356 355 353 353 355 355 355 354 353 352 352 353 356 358 359 362 363 364 364 363 363 364 365 365 365 365
321 321 322 322 322 324 328 330 329 327 323 321 324 324 325 330 332 330 330 330 330 332 333 333 336 338 339 340 340 340 341 342 342 341 342 345 345 346 347 350 351 352 352 352 352 350 350 354 357 356 355 356 358 358 360 364 365 363 362 360 357 356 355 354 356 356 356 356 354 353 352 353 354 356 358 360 362 363 363 363 363 364 365 366 367 366
318 318 319 320 321 322 323 324 323 322 320 320 321 320 322 326 327 326 327 327 328 329 329 330 333 337 338 340 340 339 340 341 342 340 340 342 343 343 343 345 348 350 351 351 350 349 350 353 355 355 356 357 358 359 362 365 366 366 365 364 361 358 356 356 356 356 355 357 357 355 355 355 356 358 360 361 362 363 362 363 364 365 366 367 368 367
316 316 316 317 319 320 321 321 320 319 318 319 319 320 322 325 325 324 324 325 326 327 327 328 330 333 336 339 339 340 340 341 341 341 340 341 342 342 341 342 344 347 349 350 349 349 351 354 355 355 354 354 355 357 359 361 364 365 366 366 364 361 358 358 358 356 356 358 360 358 358 358 359 361 362 363 364 364 364 364 366 367 368 368 368 368
316 315 316 317 318 318 320 321 318 317 318 318 318 319 321 323 323 322 323 324 325 324 325 326 327 329 332 336 338 340 341 340 340 340 340 341 343 342 341 341 342 344 347 349 349 348 350 353 354 354 353 353 352 353 356 358 359 362 364 364 363 362 360 360 361 362 361 361 361 362 362 362 362 363 364 364 366 367 367 367 368 369 369 370 369 369
315 315 315 316 316 316 318 318 317 317 318 318 317 318 319 319 320 321 321 322 323 322 321 323 325 326 327 331 336 338 340 341 341 340 340 342 343 342 342 342 343 343 346 348 348 348 350 352 353 353 353 352 351 352 354 355 354 356 360 363 364 364 361 361 364 366 365 364 364 363 364 365 365 366 366 368 369 370 370 371 370 370 370 370 369 369
316 316 316 316 316 317 317 317 316 317 317 318 317 317 317 318 319 320 320 321 322 321 320 320 322 323 324 326 331 335 338 340 341 341 341 342 344 343 342 343 344 345 347 348 348 350 350 351 352 352 352 351 350 350 352 352 351 353 357 360 363 365 363 362 364 367 367 366 366 365 364 364 366 368 369 370 370 371 370 370 370 370 370 370 370 369
316 316 315 315 316 316 316 316 316 316 316 316 316 316 316 317 318 318 319 319 320 321 320 320 321 322 321 321 323 330 336 339 340 342 342 342 342 343 343 344 345 345 346 347 348 349 349 349 351 351 350 351 351 351 351 350 349 352 356 358 362 366 365 364 364 366 366 366 366 366 365 364 365 368 369 369 369 369 368 368 369 369 369 369 369 369
Wind_Speed
15 7 9 11 10 12 14 13 12 10 12 14 12 9 10 10 8 9 13 14 10 11 11 12 12 12 11 8 10 19 26 24 26 29 28 30 31 32 35 34 35 37 38 38 36 36 37 37 35 36 37 37 36 35 35 35 36 37 35 35 35 32 30 34 35 31 30 30 28 27 26 26 24 22 21 19 19 19 16 14 12 11 12 14 14 13
14 10 12 14 12 13 14 14 14 13 14 14 11 10 8 9 9 12 15 15 11 9 9 13 12 11 12 9 10 20 20 17 24 25 25 30 31 32 34 34 36 37 37 36 36 36 36 37 36 36 38 39 39 37 36 37 39 38 37 36 35 33 31 35 37 35 34 33 31 30 29 28 26 23 24 22 19 19 18 16 15 13 12 13 14 13
10 13 16 14 12 13 13 14 15 16 15 12 9 8 8 7 6 11 15 12 11 7 7 13 11 9 14 12 10 14 15 19 31 29 27 33 32 30 33 35 36 36 36 37 37 38 37 38 38 37 38 39 39 39 38 38 38 38 38 38 37 35 33 34 37 37 35 34 32 30 29 28 27 24 24 23 20 18 19 20 18 16 14 12 14 14
10 13 15 13 13 15 15 15 16 15 12 10 8 7 9 10 7 7 10 10 12 9 7 11 10 7 11 13 11 14 16 23 34 33 31 37 35 33 35 38 38 36 37 39 39 39 38 39 41 39 40 40 39 40 40 39 39 38 39 39 39 38 36 34 36 37 35 33 31 29 28 27 25 23 22 24 23 20 19 20 19 19 17 14 14 14
12 9 12 15 15 16 16 15 14 11 9 11 12 10 9 11 13 10 8 9 10 10 9 8 6 5 8 11 10 14 16 21 32 32 30 35 37 36 35 37 40 39 40 41 41 41 39 40 43 42 42 42 41 42 42 41 41 40 38 38 40 40 38 35 35 36 35 34 30 28 28 25 22 20 20 24 26 24 21 20 20 20 19 16 14 15
15 11 14 17 16 16 16 14 15 12 8 10 14 15 14 13 14 14 13 9 5 7 8 8 5 4 7 10 9 12 13 16 27 28 27 33 36 36 34 34 39 40 41 43 44 44 41 40 42 42 42 42 43 43 43 43 42 42 39 38 39 40 40 37 34 34 35 35 33 30 30 29 26 23 22 24 27 27 25 23 22 21 21 18 14 15
11 12 13 15 16 18 16 13 16 15 8 8 12 15 18 16 14 15 15 9 4 5 9 11 6 3 5 10 10 13 15 14 20 22 23 31 35 36 35 35 38 39 40 41 42 45 43 41 42 43 44 44 44 43 43 43 43 43 41 40 39 40 40 38 36 34 35 36 35 33 32 32 30 27 25 24 24 25 25 25 24 23 22 18 14 15
10 15 14 15 17 15 14 12 13 16 11 6 10 15 18 18 17 16 13 9 4 5 10 12 9 4 4 8 10 13 13 12 16 20 21 26 33 38 38 37 39 39 40 41 41 43 44 42 43 45 46 46 45 43 42 43 43 44 44 43 42 42 41 40 38 36 36 38 37 35 33 33 31 29 27 24 22 22 24 26 26 25 23 19 15 15
11 17 16 16 15 11 11 13 12 16 12 8 10 13 15 17 18 16 11 8 5 2 6 10 11 6 3 6 9 11 12 10 12 18 20 24 31 38 40 40 42 42 42 44 43 44 46 45 44 45 46 46 44 43 43 43 43 44 46 46 45 44 43 42 40 37 37 37 38 37 35 34 32 31 28 25 23 22 23 25 26 25 23 20 17 15
9 16 18 14 13 10 11 13 14 15 12 9 12 11 10 14 15 14 10 7 5 3 4 8 11 7 3 5 7 9 11 10 10 11 16 26 34 39 42 43 44 43 43 44 45 46 47 46 46 44 44 43 43 43 43 43 43 43 45 46 46 46 45 44 42 40 38 38 38 38 37 36 34 33 31 28 26 24 24 25 25 26 25 22 19 17
10 16 19 14 12 10 11 13 15 16 13 10 11 10 8 8 9 9 8 5 5 4 4 7 10 9 5 5 7 9 11 13 13 9 13 25 34 39 42 44 44 44 44 45 45 45 46 45 45 43 43 44 42 42 42 42 43 43 44 46 46 47 46 45 43 41 39 38 38 38 37 36 36 35 34 32 30 27 26 26 25 26 26 24 21 18
13 14 13 13 17 14 10 12 14 16 15 11 8 8 6 5 4 4 4 5 6 6 5 7 8 7 5 6 9 12 15 19 17 13 14 21 28 35 39 42 44 44 44 45 43 43 44 43 43 43 43 44 44 42 42 43 44 44 44 46 47 47 47 46 45 43 41 39 39 38 37 35 35 35 35 35 33 31 28 28 27 26 26 25 23 21
13 14 9 11 20 19 12 8 11 12 13 11 7 6 6 3 3 3 4 6 6 6 5 7 8 7 5 5 8 12 14 17 17 14 17 24 29 35 39 41 43 45 45 44 43 43 43 43 45 44 43 45 46 44 44 44 45 45 46 46 47 48 48 47 46 44 42 41 40 39 38 36 35 35 35 35 34 32 30 30 29 28 27 26 26 24
9 12 14 13 14 19 16 8 7 9 9 11 8 6 7 5 5 6 4 3 4 5 6 7 8 6 4 4 7 9 10 14 19 21 25 35 40 40 43 44 44 45 46 45 44 43 44 46 48 47 44 45 47 46 45 46 46 47 47 48 48 49 49 49 48 46 44 43 41 40 39 37 37 36 36 35 34 34 32 30 30 29 29 28 27 25
8 9 14 16 8 14 19 12 7 8 8 11 10 6 7 6 5 4 3 3 3 3 6 9 7 4 4 4 5 7 9 10 20 26 28 40 48 45 45 46 45 45 46 45 45 45 46 48 49 49 48 47 48 48 47 46 47 47 48 49 49 49 50 50 50 48 46 44 42 40 40 39 38 38 37 36 35 34 33 31 30 30 30 30 28 26
11 9 9 14 11 12 18 15 10 9 8 8 8 7 7 6 4 3 4 4 3 1 3 7 5 1 3 5 6 8 11 10 13 21 22 32 45 42 39 44 45 44 45 45 46 46 47 49 49 50 50 49 50 49 48 47 47 48 48 49 50 50 50 51 52 50 47 45 43 42 41 40 40 39 38 37 36 35 34 33 31 30 30 30 29 28
9 8 8 14 17 16 16 16 14 11 6 5 9 9 6 6 5 4 3 4 4 2 3 3 3 3 4 7 7 8 12 12 11 13 12 23 42 41 36 42 45 43 45 46 47 47 48 49 49 50 51 51 51 51 51 50 49 49 48 48 49 49 49 51 52 52 50 47 46 44 43 42 40 40 39 38 37 36 35 34 33 31 30 30 29 29
7 6 8 14 18 20 18 17 16 14 9 6 9 9 5 5 6 4 3 3 4 4 4 6 8 6 5 6 8 10 12 12 13 14 11 16 32 35 35 42 44 44 46 46 47 48 47 48 49 51 52 52 53 54 54 52 49 47 47 47 48 48 49 50 52 53 52 50 48 45 44 43 41 40 39 38 37 37 36 36 35 33 31 30 29 29
9 5 8 14 17 18 17 16 13 15 16 9 7 9 7 5 6 5 4 3 5 5 4 8 11 9 7 7 9 14 16 12 11 15 15 14 21 27 34 41 42 44 44 43 45 47 47 48 48 49 51 52 53 53 53 51 48 46 46 46 46 47 48 48 50 52 52 51 49 46 43 42 41 40 39 39 38 38 37 37 36 35 33 31 30 29
11 5 5 12 17 15 12 11 10 12 15 11 7 9 8 6 5 5 4 2 4 4 4 6 7 7 7 8 13 17 18 14 9 10 13 13 20 28 34 39 41 42 42 43 45 47 48 49 49 48 49 50 51 51 50 50 48 46 47 47 46 46 46 47 49 51 52 52 51 48 45 42 41 40 40 39 39 39 38 38 37 36 34 32 31 30
9 7 6 9 13 14 10 10 12 13 12 11 8 8 8 6 4 4 4 3 3 2 3 4 5 5 6 7 13 17 17 15 12 10 9 10 22 33 36 40 43 44 44 45 46 48 48 49 49 49 48 47 48 48 48 49 48 47 48 48 47 46 46 47 49 51 52 52 52 51 49 46 44 42 41 40 40 40 39 38 37 36 35 34 32 31
7 7 8 8 8 11 12 13 14 15 14 11 8 6 9 8 6 6 6 5 5 3 3 4 3 6 6 4 9 16 16 14 13 12 9 8 20 33 38 41 45 46 48 48 48 48 48 48 49 49 48 46 45 46 47 48 48 47 48 49 48 46 46 47 49 51 52 53 52 52 50 48 46 44 43 42 41 40 40 39 38 37 36 35 34 32
12 6 9 9 8 7 12 15 16 16 16 13 10 7 8 9 8 6 6 6 6 5 5 3 3 6 6 5 7 14 14 12 14 12 9 9 17 29 38 43 44 45 48 49 47 47 48 49 50 49 48 46 45 46 47 47 48 49 49 48 47 46 46 47 48 50 51 52 53 52 51 49 47 46 46 45 44 42 41 40 38 38 37 36 35 34
15 6 5 8 8 9 10 14 17 16 15 12 11 9 7 9 10 6 4 6 6 6 6 3 3 5 7 7 2 11 12 11 13 13 12 11 15 28 41 44 41 41 46 49 46 45 48 48 48 49 47 46 47 47 48 49 49 49 48 46 45 45 46 47 48 49 51 52 53 52 52 50 48 47 47 46 45 43 42 41 39 39 38 37 36 35
12 6 4 5 6 7 8 11 15 15 14 9 10 12 10 10 13 9 4 5 5 7 8 4 3 6 6 7 7 10 11 12 13 15 16 14 14 27 41 46 45 42 43 48 46 44 47 47 46 48 47 46 47 48 49 50 50 50 47 44 42 43 45 47 49 49 50 51 52 52 52 51 50 49 48 47 46 44 43 42 41 40 39 38 37 36
10 8 5 4 5 4 4 6 8 11 11 8 10 15 14 13 14 10 5 4 4 8 9 6 4 6 5 4 7 8 7 9 10 10 12 12 12 23 36 43 48 46 43 47 48 45 46 46 45 46 45 45 46 46 47 48 49 49 45 41 41 41 42 45 47 49 50 51 52 53 53 53 52 51 49 48 46 45 44 43 42 41 40 39 38 37
6 7 7 7 6 6 6 5 5 12 13 10 11 15 16 16 13 9 7 5 4 6 6 6 6 4 2 3 6 5 4 5 6 8 9 10 12 20 33 39 45 47 43 46 50 48 47 47 46 45 43 44 46 46 46 46 46 45 42 40 41 41 41 43 45 47 49 50 51 53 53 53 52 51 50 48 47 46 45 44 43 42 41 40 39 38
5 6 8 10 10 10 11 13 8 11 17 17 15 14 16 19 17 10 9 8 6 7 5 7 8 7 5 2 4 6 5 8 8 8 9 13 16 19 33 40 41 41 40 44 49 49 48 48 48 47 46 46 46 47 46 45 43 42 41 41 42 42 42 42 42 45 46 48 50 52 53 53 52 51 50 49 47 46 45 45 44 43 42 41 40 39
6 6 8 10 13 13 13 14 12 7 11 17 18 16 15 19 21 15 9 10 9 7 5 7 10 9 6 5 5 6 6 9 11 14 16 19 21 19 27 36 34 32 34 40 45 47 47 47 47 48 48 47 46 45 45 45 43 42 42 43 43 43 43 42 42 43 45 46 49 50 51 51 51 51 50 49 48 47 46 46 45 44 43 42 41 40
7 7 13 16 14 13 12 10 10 8 2 7 14 18 15 15 21 19 11 9 10 8 7 8 12 10 7 7 5 3 12 15 16 20 22 22 25 25 22 26 27 28 33 37 41 45 46 46 46 46 47 47 44 42 43 44 44 44 44 44 44 44 44 43 43 44 45 46 47 48 48 49 50 50 49 49 48 47 46 46 45 44 43 43 42 41
10 8 15 17 9 7 8 9 11 11 6 1 5 14 16 14 18 20 14 9 8 8 9 10 10 8 6 6 5 9 18 18 14 16 19 21 25 26 23 22 24 27 32 35 38 41 42 43 44 43 44 43 42 41 41 42 43 44 43 43 43 43 43 43 43 44 45 46 46 46 46 47 48 49 49 49 48 47 46 46 45 45 44 43 42 41
10 9 12 12 6 4 4 5 13 14 7 4 4 6 9 8 12 17 15 9 7 9 8 8 7 5 5 8 8 11 16 15 11 11 16 21 23 22 22 21 22 25 28 31 35 37 37 38 39 37 37 37 37 40 41 40 40 42 43 42 42 41 42 42 43 44 45 45 45 46 46 46 45 47 48 48 48 48 47 46 45 45 44 44 43 42
9 9 9 8 7 6 5 5 12 11 6 4 6 3 2 3 5 14 15 10 7 9 8 5 6 7 6 10 11 12 13 12 10 13 19 25 27 24 20 19 21 22 23 27 30 30 30 28 26 27 30 34 37 39 41 40 38 38 39 40 39 39 41 42 43 43 45 46 46 46 46 46 45 45 45 46 46 47 46 46 46 46 45 44 43 43
10 10 8 6 5 7 9 9 8 5 3 4 2 2 5 5 6 9 17 15 9 6 7 7 5 4 8 11 11 11 12 12 14 18 22 24 24 22 19 18 20 19 17 19 21 21 22 20 18 20 25 30 34 35 36 37 36 34 35 36 37 38 39 41 42 43 44 45 47 47 46 45 45 44 44 43 43 44 46 47 47 46 45 44 44 44
11 10 7 4 4 6 8 7 4 2 5 4 3 7 6 3 6 4 9 9 6 3 4 10 9 7 8 10 12 15 19 23 24 25 25 25 25 24 22 19 18 17 15 16 14 14 18 18 16 16 18 19 23 26 29 31 32 31 31 32 35 36 37 38 40 42 44 45 46 48 48 46 45 44 44 43 42 43 44 45 46 45 45 45 45 45
10 8 5 4 5 4 4 2 3 3 6 3 6 9 8 5 2 9 15 9 10 14 8 6 14 14 10 10 15 23 30 33 31 31 33 32 30 30 29 27 26 26 23 20 17 15 17 17 14 13 14 14 14 17 22 26 28 30 29 30 32 34 35 37 39 41 42 43 45 48 49 48 46 44 43 42 42 43 43 44 45 45 45 45 45 45
10 7 4 5 4 3 4 4 3 3 5 5 8 10 12 10 3 5 10 12 17 22 20 7 11 18 15 12 17 25 32 30 22 22 30 31 29 30 30 29 28 27 25 23 21 20 19 19 17 15 17 16 12 11 16 21 24 27 28 29 31 33 33 34 38 41 42 42 42 45 48 49 48 46 44 43 43 43 43 43 43 44 44 45 46 46
11 7 4 4 3 3 5 4 2 2 2 7 13 16 16 16 8 7 12 13 17 22 23 17 7 11 15 13 15 21 25 21 9 10 22 27 26 28 29 27 24 21 20 18 17 17 15 13 12 12 14 14 12 13 15 16 17 22 26 27 30 32 33 34 36 38 41 42 41 41 44 47 49 47 45 44 43 43 43 43 43 43 43 45 45 46
12 9 5 4 4 5 4 2 3 2 2 11 18 17 20 24 14 6 13 11 14 19 22 21 16 13 10 12 15 15 15 11 5 7 19 25 25 25 25 25 23 19 16 14 13 15 14 11 10 10 7 5 9 12 14 13 12 14 20 25 28 29 31 35 37 37 38 40 40 39 40 43 46 47 47 45 44 43 42 42 42 42 42 43 44 45
9 6 3 3 4 5 4 2 3 0 3 14 19 17 25 29 13 7 9 6 11 18 22 22 19 19 19 19 19 13 9 8 7 11 20 24 24 25 23 22 21 19 17 14 12 13 12 10 12 12 7 3 4 9 12 14 13 12 13 19 25 29 30 32 34 35 36 37 37 38 37 39 42 45 46 46 44 42 42 41 41 41 41 41 42 42
4 4 3 3 4 5 4 1 2 0 4 15 19 21 26 21 6 10 6 3 10 16 22 24 22 24 25 24 19 13 13 17 17 20 24 25 23 23 21 18 17 18 19 15 12 11 10 9 11 10 4 2 4 7 10 14 15 15 13 14 19 26 29 29 29 30 32 34 36 37 36 36 37 40 43 44 43 42 41 41 40 40 39 39 39 39
1 2 1 1 3 4 2 0 1 0 6 17 21 23 23 11 5 5 1 4 10 16 21 25 25 24 25 25 23 20 22 25 25 25 26 26 24 23 21 19 16 17 18 14 11 10 9 8 7 4 2 5 6 6 9 12 13 14 13 13 15 20 23 24 26 27 28 30 33 36 36 35 34 35 38 40 41 41 40 40 39 38 37 37 37 37
2 2 1 1 2 3 1 2 2 0 9 21 20 17 16 9 4 2 3 7 16 21 21 23 25 25 24 24 25 25 25 26 26 26 25 24 23 22 20 19 17 16 15 13 10 8 7 6 4 2 5 7 8 6 7 11 13 12 11 11 14 16 18 18 19 22 25 28 29 32 35 35 34 33 35 37 39 39 39 38 37 37 36 35 35 35
3 3 2 2 4 3 1 2 2 2 7 17 16 10 8 8 11 11 10 12 18 21 22 23 25 27 25 22 22 24 25 25 24 24 23 22 20 18 17 16 15 14 13 10 9 7 4 4 6 6 6 6 7 4 2 5 9 10 10 12 13 15 16 16 15 16 21 26 28 29 31 33 34 33 33 34 37 37 37 36 36 35 34 34 34 34
3 2 1 1 3 2 1 3 2 3 10 16 16 14 15 13 18 18 17 16 18 21 22 23 24 26 25 23 23 23 23 23 22 21 21 20 18 16 15 13 12 13 11 8 8 7 3 3 6 7 4 3 2 0 1 2 4 7 10 12 13 13 14 15 15 15 16 20 25 29 30 31 32 32 32 33 34 35 34 34 34 33 32 32 32 33
7 6 1 1 2 3 3 4 3 7 14 16 14 14 17 16 18 19 19 18 19 20 21 23 24 24 24 23 24 24 22 22 22 21 20 19 18 16 15 12 9 10 11 10 9 7 4 2 4 4 3 2 2 2 2 2 4 6 8 10 11 13 13 13 14 15 14 15 21 27 30 30 30 30 30 31 31 31 30 31 31 30 30 30 31 32
8 11 7 2 2 3 2 3 7 10 12 13 12 11 11 13 16 18 17 17 17 18 20 23 23 22 24 23 23 22 21 20 19 19 18 17 17 17 18 16 11 7 8 10 9 7 5 4 4 5 5 5 4 4 5 4 4 5 6 8 9 11 12 11 12 14 14 14 18 24 28 28 28 27 27 27 27 26 26 26 26 27 27 29 29 30
7 10 8 4 3 3 2 5 12 16 14 13 12 13 14 15 15 16 16 16 16 15 17 21 22 22 23 23 22 22 21 19 18 17 16 16 16 16 18 16 11 6 6 8 8 6 5 5 5 5 6 7 6 6 6 6 6 5 6 7 8 9 11 11 10 10 12 13 17 21 23 23 23 23 22 22 22 22 23 22 22 23 26 27 28 28
10 8 7 7 5 3 2 5 13 16 13 10 15 21 19 16 15 15 15 16 17 17 16 18 20 21 21 21 21 21 20 18 17 16 15 15 15 15 15 14 10 7 6 6 6 6 5 4 3 4 5 5 5 6 5 6 7 7 6 7 6 6 10 13 11 10 12 13 16 19 20 18 18 18 19 20 21 22 22 22 22 23 24 25 25 25
9 5 6 7 5 4 4 8 14 10 7 10 20 25 22 18 15 14 14 15 16 16 16 17 18 19 18 17 19 19 18 16 15 14 14 14 13 13 14 12 10 8 6 5 4 4 5 4 3 4 4 3 5 7 6 6 7 6 5 7 6 5 8 12 13 12 13 14 15 17 18 18 17 17 18 20 21 22 22 22 22 23 23 23 23 23
6 6 6 6 5 7 10 15 16 10 7 14 23 25 22 19 16 13 12 12 11 12 13 15 16 18 18 17 16 15 15 14 13 12 13 12 9 10 12 11 9 8 7 5 4 4 5 4 3 4 4 4 5 6 6 7 7 4 4 6 7 7 7 10 12 13 14 15 16 15 16 16 18 19 19 20 21 23 23 23 23 23 21 20 21 21
Wind_Direction
205 221 221 216 209 204 210 219 228 230 229 237 244 237 211 205 224 218 228 240 206 168 177 180 181 201 206 179 152 148 150 153 162 169 171 174 178 177 177 180 183 185 189 191 191 189 188 188 189 189 188 189 191 191 191 193 191 189 191 193 195 202 199 186 186 192 196 195 193 194 194 197 205 201 189 188 191 193 207 224 229 224 209 202 206 211
202 225 228 216 211 208 208 214 225 232 237 239 245 259 237 211 217 213 225 230 195 169 178 178 184 194 186 185 172 163 165 163 166 172 171 173 178 177 177 180 182 185 186 188 191 190 189 187 187 187 187 189 191 192 193 193 193 192 192 195 196 202 202 192 190 196 198 199 199 198 198 200 205 204 191 187 193 195 199 212 225 230 220 209 209 211
201 230 225 212 207 212 213 208 214 227 236 239 242 260 260 253 244 218 226 218 171 164 178 174 188 188 170 184 193 175 172 170 174 175 170 173 178 179 180 178 178 181 182 185 189 191 191 189 188 188 188 190 192 192 192 193 196 196 195 196 195 199 203 198 195 199 202 203 203 203 203 204 208 207 197 189 189 196 202 207 216 228 230 219 213 212
206 226 215 210 208 208 216 213 211 218 230 239 237 243 251 258 268 236 222 202 165 160 169 171 187 188 168 183 198 190 177 169 176 178 170 174 181 182 181 179 179 178 179 183 187 190 191 189 190 191 190 191 192 191 191 194 196 197 198 197 196 199 204 202 199 202 205 205 205 205 206 208 211 210 204 195 189 193 204 210 213 223 231 226 216 214
224 215 187 207 217 206 212 217 216 213 216 231 233 237 246 246 253 259 247 216 171 158 164 161 179 201 181 184 190 190 182 170 176 179 173 175 182 183 181 181 182 181 180 182 186 190 192 189 189 192 192 192 193 193 193 195 197 197 198 198 198 202 205 205 203 203 204 204 203 201 201 203 207 210 207 201 197 194 197 208 215 221 229 229 220 216
232 212 180 200 217 211 210 212 216 217 208 220 227 234 245 248 248 257 266 249 177 162 177 162 174 233 200 192 184 179 190 182 175 178 179 177 180 182 181 180 180 182 184 184 185 189 192 190 188 190 191 191 193 195 196 197 197 197 197 197 199 201 205 207 206 205 204 204 203 200 198 197 199 205 207 205 205 201 198 204 214 222 229 230 223 215
225 221 200 200 208 212 215 212 211 214 218 216 211 222 240 254 255 255 265 259 192 175 186 173 178 232 200 198 194 181 194 193 173 175 181 178 179 181 182 182 180 183 185 185 185 188 191 191 189 190 191 192 194 196 197 198 198 197 196 197 199 200 203 207 207 206 204 205 206 206 205 203 201 203 208 211 211 210 204 204 213 223 229 230 222 213
202 213 218 209 204 208 214 215 207 206 221 225 196 204 223 243 255 257 265 266 235 172 185 184 176 182 202 201 199 188 195 197 178 176 180 179 180 181 183 184 183 185 185 185 186 187 190 192 191 193 194 195 197 196 197 198 199 199 197 197 200 201 203 206 209 208 205 205 207 209 209 209 205 204 210 213 212 212 208 205 210 221 228 229 221 214
192 206 218 216 210 209 209 212 208 206 219 228 210 207 209 222 242 254 263 267 261 192 194 195 176 171 233 214 198 190 197 206 191 182 180 181 181 180 182 182 183 185 186 186 187 188 190 192 193 194 196 197 197 198 199 200 201 201 199 198 200 201 204 207 210 210 207 206 208 211 212 211 208 205 208 213 213 211 208 206 208 215 225 229 223 217
199 206 212 221 220 214 205 204 205 212 219 219 223 230 217 212 224 238 249 264 278 267 220 204 187 179 224 219 198 193 200 207 207 195 180 180 181 180 181 181 181 183 186 187 189 190 191 192 194 195 196 197 197 199 200 201 202 202 201 200 200 202 205 207 210 211 210 209 210 212 213 213 211 206 204 209 214 212 208 208 208 211 219 225 224 219
225 207 204 220 229 219 208 199 199 211 218 211 217 234 242 226 215 222 231 251 279 262 224 217 202 188 204 218 199 194 198 197 202 204 177 177 183 182 180 179 180 183 186 188 190 191 192 193 194 196 197 197 196 197 199 200 201 202 202 202 202 204 205 207 210 211 212 212 212 213 214 215 214 210 205 206 212 213 208 207 208 210 214 220 223 222
235 221 204 210 220 224 220 203 196 202 210 212 208 212 239 254 231 227 211 210 244 249 235 241 230 211 215 224 207 199 199 196 197 200 178 172 180 181 178 177 179 182 185 187 188 190 191 192 192 194 196 196 195 196 198 200 201 202 204 204 204 204 205 206 208 211 213 214 214 215 215 214 214 213 209 208 212 214 210 207 208 209 212 216 222 224
228 234 233 210 209 216 226 212 195 195 200 206 205 192 207 232 218 223 209 201 224 239 236 247 253 241 233 233 214 201 201 197 193 196 180 170 175 178 177 177 178 181 185 185 186 187 189 191 191 192 194 195 195 197 199 200 201 202 205 206 206 205 205 206 208 211 213 215 217 217 216 215 214 213 211 211 213 215 214 211 208 207 210 214 218 222
218 230 237 229 205 203 217 220 186 191 191 194 203 188 183 196 200 206 213 204 211 224 227 238 254 247 237 253 221 203 212 198 190 199 184 170 174 177 176 178 178 181 184 184 185 186 189 192 192 192 193 195 196 198 200 201 202 203 205 207 208 208 207 207 208 211 214 216 219 219 218 218 216 214 214 214 215 216 219 217 213 211 212 215 218 221
217 220 221 228 208 181 205 226 198 181 186 195 202 191 183 192 189 188 200 194 199 215 206 215 233 222 199 221 203 211 241 211 191 202 191 170 173 177 175 176 177 179 182 183 184 186 190 193 193 193 195 196 197 198 199 202 203 204 206 207 209 209 208 208 208 211 214 217 219 219 219 219 219 218 217 218 218 219 221 221 219 216 214 218 222 224
227 232 207 219 227 188 192 216 214 187 187 196 197 200 197 185 165 171 202 184 162 190 204 210 229 218 220 233 204 209 242 242 202 203 196 171 171 175 171 173 178 179 180 181 183 186 190 193 193 193 194 196 197 197 199 202 203 205 206 208 210 211 210 209 209 211 215 217 218 219 220 220 221 221 219 219 219 220 222 224 224 222 219 220 222 225
231 234 193 199 222 219 196 199 211 205 187 175 195 209 185 160 181 209 214 168 147 202 219 218 254 256 257 265 248 216 222 236 225 211 201 170 170 174 171 172 176 178 179 181 184 187 191 194 194 195 196 196 197 199 201 203 205 206 207 208 209 210 211 211 210 212 215 217 219 220 222 222 222 221 220 220 220 221 223 224 226 227 225 223 223 223
246 244 207 193 209 222 209 197 208 215 204 175 189 195 144 154 210 218 219 174 170 211 206 204 227 220 209 234 244 237 229 226 217 213 214 173 168 171 171 173 175 176 179 182 184 188 192 195 197 197 199 200 200 202 204 205 205 206 207 208 209 210 212 213 213 213 215 216 218 220 222 222 223 223 222 222 222 221 222 223 226 227 227 227 226 225
258 262 221 205 202 211 210 199 204 214 217 211 173 161 161 197 205 189 206 193 181 211 214 209 217 211 204 200 200 220 231 230 212 204 206 182 165 167 171 174 174 173 176 179 182 188 192 194 197 198 200 201 203 205 205 204 204 206 208 210 211 213 214 215 215 215 215 216 218 220 222 223 224 224 224 224 223 223 223 224 225 227 228 228 228 228
258 264 240 220 198 192 197 199 199 204 213 219 183 163 183 205 180 175 204 189 173 198 208 216 217 209 217 201 187 202 217 219 205 193 197 182 167 168 169 171 172 172 174 177 182 189 192 194 196 198 200 201 203 204 203 203 204 206 209 210 213 215 216 216 217 216 216 217 218 220 222 223 223 224 225 224 224 224 225 225 225 226 228 229 229 230
260 239 258 246 201 185 191 202 199 190 195 211 202 179 184 186 164 179 206 201 191 196 193 210 231 234 232 205 189 193 202 204 191 184 196 179 170 172 169 168 171 175 177 180 184 189 192 195 197 199 200 201 201 202 202 203 204 206 208 210 213 215 215 216 218 218 218 218 219 220 221 222 223 223 224 225 225 226 226 225 225 226 228 229 230 230
303 239 248 261 223 195 195 197 193 187 188 202 209 187 179 180 173 183 204 209 201 224 220 198 235 250 248 234 196 187 191 194 180 178 192 182 175 175 171 170 173 177 180 183 187 190 191 194 196 197 198 198 198 200 201 202 203 204 207 210 212 214 216 218 218 219 219 219 220 221 222 223 224 223 224 224 225 227 227 227 226 227 227 228 230 232
328 278 237 245 254 238 209 191 182 183 187 198 214 206 179 179 181 180 191 194 190 228 247 238 267 262 261 267 206 180 179 174 162 166 179 194 191 179 174 176 176 177 182 186 187 189 192 194 195 196 196 195 196 198 199 200 201 204 207 209 211 213 216 219 220 220 220 220 221 222 223 224 225 225 224 224 225 227 227 228 228 228 228 229 231 232
337 312 245 243 255 274 246 196 173 177 186 196 213 214 197 188 185 177 172 172 174 206 224 236 266 263 286 312 135 146 147 141 150 166 176 198 200 179 174 176 174 174 183 189 189 189 192 194 194 194 194 193 196 198 199 199 200 202 205 207 210 214 217 220 220 220 221 221 222 222 222 224 225 226 225 225 226 227 228 229 229 229 230 230 231 232
324 303 306 281 236 251 247 194 172 176 186 196 205 209 218 200 179 176 180 163 172 201 196 187 244 255 282 337 49 100 121 131 154 177 183 192 187 171 170 173 174 173 178 185 187 187 191 194 194 193 194 195 198 201 202 203 204 204 205 207 210 214 217 219 220 220 221 221 222 223 222 223 224 225 226 226 227 228 228 228 230 231 231 231 232 232
294 270 294 293 236 233 230 190 175 177 183 197 198 200 217 215 187 176 177 162 187 207 192 180 224 262 287 12 58 82 109 135 159 164 165 170 162 163 169 171 174 175 174 177 181 182 186 191 192 193 194 197 201 204 205 206 207 207 206 207 211 215 217 219 220 220 221 222 222 223 223 223 223 224 226 227 227 228 228 228 230 231 231 231 231 232
276 253 263 254 248 247 258 271 207 174 173 191 199 196 207 218 206 175 164 186 185 182 196 197 184 206 249 88 101 124 117 115 124 103 101 110 119 154 172 173 175 177 173 173 176 177 180 185 189 192 194 198 200 203 205 206 207 207 205 206 209 214 217 218 219 220 221 221 222 223 223 223 224 225 226 228 228 228 229 229 229 230 232 232 231 231
290 278 276 261 265 259 266 290 278 188 175 180 195 202 199 207 216 198 173 189 162 139 205 219 157 159 219 189 150 182 146 105 107 100 94 100 107 146 174 175 173 174 173 171 173 176 179 182 187 190 194 197 200 202 205 207 206 204 202 204 208 212 216 218 219 219 220 221 222 223 223 224 225 226 227 228 228 229 229 229 229 229 231 233 232 232
291 294 314 300 297 289 276 283 286 245 182 174 189 210 202 195 209 214 185 172 157 142 208 209 153 156 212 211 216 220 161 122 118 111 102 100 101 123 160 165 162 164 167 168 172 175 178 180 184 188 192 196 200 204 207 207 204 202 201 205 208 211 214 217 218 218 219 220 222 223 224 224 225 226 226 227 227 228 229 229 229 229 230 231 233 235
307 315 336 324 306 295 291 288 290 292 252 169 186 208 217 200 199 211 209 173 157 163 192 178 158 171 193 189 210 166 123 119 117 112 104 102 101 104 123 137 140 150 160 165 170 175 178 181 185 189 192 195 198 201 204 204 202 202 202 205 208 211 213 215 217 218 218 219 221 223 224 224 224 225 225 226 227 228 229 229 229 229 229 230 233 235
319 324 331 328 314 292 310 317 302 290 278 275 189 202 219 214 194 202 215 193 156 173 191 165 156 183 178 146 126 100 102 99 94 96 97 102 108 111 115 116 120 136 153 162 168 174 179 183 188 191 193 196 198 200 200 201 202 202 203 205 208 211 212 213 217 218 218 219 221 224 225 225 224 225 225 226 227 228 229 229 229 228 228 230 232 235
320 322 324 333 335 311 328 309 290 291 290 291 276 213 215 227 200 193 205 209 171 171 182 150 144 184 153 116 100 88 87 83 75 73 77 82 89 104 123 130 129 136 148 158 166 172 177 182 187 191 195 198 200 201 200 201 202 203 205 207 210 212 212 214 217 219 220 220 221 224 226 226 225 225 226 226 226 228 229 229 228 228 228 229 231 233
316 321 328 346 335 320 344 294 277 300 325 271 254 216 124 332 248 192 191 213 191 166 171 161 179 198 150 108 96 87 78 76 77 71 74 75 71 77 99 123 134 138 147 157 163 167 171 176 181 189 196 199 202 203 202 202 202 204 207 209 210 213 214 215 217 219 221 220 221 224 226 227 227 226 226 227 227 228 228 228 228 228 228 230 231 233
307 310 318 342 318 308 329 311 286 304 299 238 248 61 72 11 302 199 183 203 209 164 156 161 175 182 136 117 112 104 92 87 85 76 75 78 75 72 80 104 121 126 136 152 159 165 172 178 182 188 193 196 199 202 202 203 204 207 210 211 212 213 215 216 218 220 222 222 222 224 226 227 229 228 228 229 228 228 228 228 228 229 229 230 231 231
299 305 310 326 290 293 322 320 302 277 254 238 52 37 42 11 332 48 124 182 235 314 177 161 130 86 94 109 110 105 98 91 83 71 66 70 74 74 71 80 98 106 117 138 154 169 177 177 175 179 184 189 197 200 201 204 207 210 213 213 214 214 216 218 219 220 224 225 223 223 224 226 229 230 230 230 229 228 228 228 229 229 229 229 230 232
281 295 308 312 291 302 331 292 223 247 282 321 49 29 6 334 321 53 60 46 356 347 330 171 132 104 85 85 98 104 98 87 73 61 60 65 70 72 68 68 81 90 97 107 116 132 153 159 156 163 176 185 195 203 207 209 210 212 215 215 215 216 218 220 221 222 224 227 226 224 223 224 226 228 231 232 230 229 229 229 230 230 229 229 230 232
268 284 313 313 306 345 333 286 253 300 323 4 21 1 343 328 310 93 69 30 6 1 357 6 124 117 105 92 96 100 93 82 66 52 55 61 65 68 69 70 77 85 89 94 100 110 132 150 153 158 171 177 175 182 201 212 214 216 218 218 219 220 219 221 223 223 225 228 228 226 225 224 224 225 228 231 232 232 232 232 231 231 230 230 230 230
253 263 292 303 305 337 325 298 285 297 356 5 347 337 328 321 328 90 83 35 1 357 2 3 33 99 110 112 106 99 86 74 63 48 52 56 59 63 67 68 68 73 78 82 90 94 104 129 142 149 167 180 179 172 181 196 208 215 219 220 221 222 223 224 225 225 226 229 230 229 227 226 225 225 226 228 232 234 234 234 234 233 232 231 231 232
246 252 269 278 285 308 315 323 312 263 42 352 339 338 330 317 316 79 78 36 346 341 1 12 14 28 64 92 94 94 85 74 77 55 52 56 58 57 61 63 60 60 60 57 65 73 74 86 103 108 121 167 191 190 190 193 199 210 219 222 222 222 223 225 226 227 228 229 231 232 230 228 227 226 226 227 230 234 235 236 236 236 235 234 234 234
246 251 264 254 266 294 286 306 338 92 31 346 337 336 325 314 315 71 73 22 325 335 3 20 23 22 33 57 71 76 77 80 85 65 57 61 61 58 59 60 56 55 49 33 35 52 56 64 75 75 64 60 195 207 211 210 209 213 220 224 223 223 225 226 226 228 230 231 232 233 233 232 229 228 228 228 228 231 234 236 236 236 236 236 236 237
249 246 267 257 271 307 305 307 331 109 20 348 338 336 328 319 352 70 78 271 307 343 11 23 30 29 30 42 57 60 59 63 68 66 62 61 60 57 57 56 56 59 52 32 18 28 37 48 60 60 46 278 236 229 225 221 219 222 224 224 221 222 226 230 229 228 229 231 233 234 234 234 232 230 230 230 229 229 232 235 235 235 236 237 237 238
264 247 275 264 272 301 306 44 333 356 359 343 339 350 358 6 70 64 14 285 343 10 19 20 27 34 34 41 49 52 54 55 56 59 59 56 55 53 49 48 54 61 53 32 11 18 33 48 61 72 227 251 252 240 231 231 232 232 233 232 225 221 224 230 232 230 228 228 231 233 235 235 233 231 230 229 229 228 229 232 235 235 236 237 238 239
354 308 290 302 312 318 324 12 29 133 336 341 349 7 21 46 93 7 358 22 22 25 22 17 23 29 33 44 49 47 49 49 48 51 51 49 51 51 48 49 53 54 43 22 6 14 36 50 40 304 266 278 285 270 243 237 239 242 245 242 236 230 228 230 231 231 229 228 228 230 232 234 233 231 229 229 229 228 228 231 233 234 236 237 238 240
16 350 9 5 350 17 60 6 40 191 318 351 12 17 16 68 80 50 36 34 27 26 22 16 17 21 27 42 49 45 45 45 44 47 46 42 42 45 47 51 54 51 37 11 357 5 32 59 24 339 305 307 313 311 276 243 239 239 239 239 239 237 231 229 227 226 226 227 228 229 230 231 232 231 229 229 228 227 228 230 233 235 237 238 239 240
335 328 124 229 317 359 202 232 247 304 339 4 22 7 359 41 64 52 43 37 27 25 24 16 14 16 21 31 40 41 42 41 39 40 41 37 33 32 36 44 54 51 34 4 353 3 23 66 27 355 325 324 330 117 131 185 210 215 221 226 232 235 230 228 227 223 220 224 228 229 229 229 230 229 228 228 227 227 228 230 232 234 236 238 239 239
319 336 6 196 302 328 272 249 299 357 1 7 13 3 3 27 45 43 41 35 25 24 23 17 16 18 19 25 32 34 36 36 33 30 30 29 26 22 22 26 36 39 25 4 357 5 15 28 7 343 320 306 256 216 213 196 186 197 210 215 219 223 222 225 229 227 220 219 224 228 227 226 226 225 224 225 225 226 229 231 232 234 236 237 238 238
344 358 355 332 358 358 339 336 344 347 348 343 339 351 16 36 40 37 35 31 26 26 24 20 17 17 19 23 28 29 31 31 28 24 23 22 19 15 13 10 7 15 19 7 357 359 10 15 358 330 316 315 294 256 252 243 205 199 208 213 217 216 211 212 222 227 223 217 219 222 221 220 219 218 217 220 223 225 228 231 234 236 236 236 236 237
344 357 346 327 355 356 312 324 332 324 310 306 327 4 31 40 35 28 28 27 20 16 19 20 17 14 15 19 21 22 23 23 20 18 18 18 13 6 6 5 359 356 5 1 351 347 352 3 4 343 328 327 315 281 262 259 252 233 212 211 220 218 209 201 200 207 211 208 208 211 213 213 213 212 212 215 218 222 225 229 233 235 235 234 234 234
317 338 339 329 331 319 291 353 358 342 318 324 4 14 15 18 21 19 18 19 13 6 4 8 8 7 9 14 16 15 14 16 15 10 11 12 4 356 359 2 359 355 354 349 346 344 338 341 353 342 339 346 331 303 283 277 271 254 224 210 208 206 206 201 190 185 190 193 195 198 201 204 205 206 207 208 209 213 218 220 223 227 230 232 231 232
325 341 351 343 330 312 323 2 10 358 314 340 0 357 348 352 7 12 7 8 11 7 356 351 353 354 356 6 12 8 5 7 8 2 0 1 355 349 350 350 345 339 334 334 345 339 321 322 341 340 342 351 329 312 299 291 283 265 232 214 198 183 195 200 195 188 187 190 193 196 199 202 203 205 208 208 208 211 212 211 212 216 223 227 227 227
19 2 356 351 319 302 312 330 342 340 315 330 335 329 326 334 342 346 350 353 358 357 347 339 339 338 337 345 358 2 358 358 359 355 349 344 341 343 341 333 329 332 330 333 336 320 311 318 324 325 332 328 315 312 312 311 303 274 231 214 192 173 175 191 196 193 192 194 195 195 198 201 202 205 210 211 212 214 212 206 202 204 212 216 216 218